SCP
0 0 0 0 0 0 0 0 0 0 0 0 0 0 0 0 0 0 0 0 0 0 0 0 0 0 0 0 0 0 0 0 0 0 0 0 0 0 0 0 0 0 0 0
0 0 0 0 0 0 0 0 0 0 0 0 0 0 0 0 0 0 0 0 0 0 0 0 0 0 0 0 0 0 0 0 0 0 0 0 0 0 0 0 0 0 0 0
0 0 0 0 0 0 0 0 0 0 0 0 0 -0 0 0 0 0 0 0 0 0 0 0 0 0 0 0 0 0 0 0 0 0 0 0 0 0 0 0 0 0 0 0
0 0 0 0 0 0 0 0 0 0 0 0 0 0 0 0 0 0 0 0 0 0 0 0 0 0 0 0 0 0 0 0 0 0 0 0 0 0 0 0 0 0 0 0
0 0 0 0 0 0 0 0 0 0 0 0 0 0 -0 0 0 0 0 0 0 0 0 0 0 0 0 0 0 0 0 0 0 0 0 0 0 0 0 0 0 0 0 0
0 0 0 0 0 0 0 0 0 0 0 0 -0 0 0 0 0 0 0 0 0 0 0 0 0 0 0 0 0 0 0 0 0 0 0 0 0 0 0 0 0 0 0 0
0 0 0 0 0 0 0 0 0 0 0 0 -0 -0 0 0 0 0 0 0 0 0 0 0 0 0 0 0 0 0 0 0 0 0 0 0 0 0 0 0 0 0 0 0
0 0 0 0 0 0 0 0 0 0 0 0 0 0 0 0 0 0 0 0 0 0 0 0 0 0 0 0 0 0 0 0 0 0 0 0 0 0 0 0 0 0 0 0
0 0 0 0 0 0 0 0 0 0 0 0 -0 0 0 0 0 0 0 0 0 0 0 0 0 0 0 0 0 0 0 0 0 0 0 0 0 0 0 0 0 0 0 0
0 0 0 0 0 0 0 0 0 0 0 0 0 -0 -0 0 0 0 0 0 0 0 0 0 0 0 0 0 0 0 0 0 0 0 0 0 0 0 0 0 0 0 0 0
0 0 0 0 0 0 0 0 0 0 0 0 0 0 0 0 0 0 0 0 0 -0 0 0 0 0 0 0 0 0 0 0 0 0 0 0 0 0 0 0 0 0 0 0
0 0 0 0 0 0 0 0 0 0 0 0 0 0 0 0 0 0 0 0 0 -0 0 0 0 0 0 0 0 0 0 0 0 0 0 0 0 0 0 0 0 0 0 0
0 0 0 0 0 0 0 0 0 0 0 0 0 0 0 0 0 0 0 0 0 0 0 0 0 0 -0 0 0 0 0 0 0 0 0 0 0 0 0 0 0 0 0 0
0 0 0 0 0 0 0 0 0 0 0 0 0 0 0 0 0 0 0 -0 -0 -0 -0 -0 -0 -0 0 0 0 0 0 0 0 0 0 0 0 0 0 0 0 0 0 0
0 0 0 0 0 0 0 0 0 0 0 0 0 0 0 0 0 0 0 0 0 0 -0 0 0 0 0 0 0 0 0 0 0 0 0 0 0 0 0 0 0 0 0 0
0 0 0 0 0 0 -0 0 0 0 0 0 0 0 0 0 0 0 0 0 -0 -0 -0 0 0 0 0 0 0 0 0 0 0 0 0 0 0 0 0 0 0 0 0 0
0 0 0 0 0 0 0 0 0 0 0 0 0 0 0 0 0 0 -0 -0 -0 0 0 -0 -0 0 0 0 0 0 0 0 0 0 0 0 0 0 0 0 0 0 0 0
0 0 0 0 0 0 0 0 0 0 0 0 0 0 0 0 0 0 0 0 0 0 0 0 0 0 0 0 0 0 0 0 0 0 0 0 0 0 0 0 0 0 0 0
0 0 0 0 0 0 0 0 0 0 0 0 0 0 0 0 0 0 -0 -0 0 0 0 0 0 -0 -0 0 0 0 0 0 0 0 0 0 0 0 0 0 0 0 0 0
0 0 0 0 0 0 0 0 0 0 0 0 0 0 0 0 -0 -0 -0 0 0 0 0 0 0 -0 -0 0 0 0 0 0 0 0 0 0 0 0 0 0 0 0 0 0
0 0 0 0 0 0 0 0 0 0 0 0 0 -0 0 0 0 0 -0 -0 -0 -0 0 0 0 0 -0 0 0 0 0 0 0 0 0 0 0 0 0 0 0 0 0 0
0 0 0 0 0 0 0 0 0 0 0 0 0 0 0 0 -0 -0 -0 -0 -0 -0 0 0 0 0 0 -0 0 0 0 0 0 0 0 0 0 0 0 0 0 0 0 0
0 0 0 0 0 0 0 0 0 0 0 0 0 0 0 0 0 0 0 0 0 0 0 0 0 0 0 0 0 0 0 0 0 0 0 0 0 0 0 0 0 0 0 0
0 0 0 0 0 0 0 0 0 0 0 0 0 0 0 0 0 0 0 0 0 0 0 0 0 0 0 0 0 0 0 0 0 0 0 0 0 0 0 0 0 0 0 0
0 0 0 0 0 0 0 0 0 0 0 0 0 0 0 0 0 0 0 0 0 0 0 0 0 0 0 0 0 0 0 0 0 0 0 0 0 0 0 0 0 0 0 0
0 0 0 0 0 0 0 0 0 0 0 0 0 0 0 0 0 0 0 0 0 0 0 0 0 0 0 0 0 0 0 0 0 0 0 0 0 0 0 0 0 0 0 0
Wind_Speed_500mb
11 12 5 11 6 8 11 8 4 5 4 3 12 15 19 27 41 49 56 60 64 67 60 56 58 56 56 55 53 51 48 48 45 42 39 37 32 28 28 19 17 15 12 12
12 10 1 8 7 13 11 9 1 5 4 3 11 19 25 26 39 59 68 73 75 69 65 59 59 59 57 54 54 57 54 53 48 43 39 37 31 32 33 25 19 17 16 15
12 5 3 9 9 11 6 5 2 3 6 1 13 15 10 10 44 52 75 80 75 76 73 69 64 62 56 55 54 54 53 54 52 45 46 43 39 38 40 33 24 21 19 18
9 6 7 11 9 8 4 4 3 5 8 4 8 11 12 8 15 17 48 59 73 75 78 73 68 64 60 56 53 51 53 56 56 52 51 48 44 41 40 39 29 26 23 20
1 2 7 6 7 5 4 7 5 3 4 6 7 1 16 7 13 16 29 52 65 78 83 79 73 68 61 55 53 51 53 57 57 55 53 49 45 45 44 37 33 29 26 23
3 1 3 6 4 5 5 8 13 8 5 4 7 8 12 6 8 11 8 18 30 49 62 70 69 68 64 57 54 54 56 56 56 56 56 53 52 50 46 40 34 32 30 25
1 1 1 4 7 5 11 10 5 9 7 8 3 6 18 20 23 14 27 50 37 32 41 52 63 68 67 64 60 59 58 57 57 58 59 57 53 50 47 45 39 33 31 26
8 6 11 7 10 10 9 11 8 9 5 7 5 11 13 14 14 24 24 28 31 31 34 41 49 56 63 63 62 59 58 57 58 60 59 58 54 55 54 50 41 35 33 29
8 8 4 4 4 13 8 7 8 4 1 1 9 13 18 13 15 18 31 26 28 30 31 37 41 45 54 60 61 58 58 57 58 57 59 60 57 56 54 50 46 41 38 36
4 3 2 4 5 1 10 12 5 3 5 10 9 9 13 13 13 18 18 19 23 25 28 31 33 36 41 51 55 57 57 57 54 57 60 60 58 58 57 54 50 46 42 40
4 5 6 4 7 15 5 6 4 7 9 7 7 10 12 11 8 12 25 27 35 44 30 25 26 28 34 44 52 56 57 59 59 60 61 62 59 57 56 53 51 48 46 43
11 6 6 16 5 5 6 5 11 8 10 8 5 24 8 16 15 18 44 48 46 34 23 21 19 22 31 44 51 56 58 62 62 62 64 64 61 59 57 56 54 52 49 46
9 3 4 16 11 4 10 10 9 4 2 17 15 22 3 5 13 15 21 29 36 35 25 21 26 41 42 49 54 59 60 62 63 63 67 67 65 64 61 59 58 56 55 53
13 9 12 11 7 2 7 11 16 16 16 37 33 49 60 32 21 45 69 67 85 71 53 52 54 56 55 58 62 63 65 66 66 67 68 71 70 66 63 60 61 62 60 59
6 6 2 7 9 3 12 18 17 17 38 30 45 41 49 48 16 36 49 61 66 68 73 81 79 69 68 69 68 68 69 73 72 70 71 75 71 68 67 68 66 65 63 62
6 4 5 8 13 15 34 30 26 30 32 32 37 44 45 83 54 56 64 53 58 68 73 80 81 76 78 82 81 79 79 82 80 76 74 73 75 76 75 73 71 68 66 67
7 4 3 21 5 13 31 19 30 32 41 28 38 50 51 47 56 56 43 43 59 68 62 67 69 71 72 71 74 84 87 91 89 85 81 78 78 81 81 78 75 76 73 72
10 8 5 5 4 25 2 8 6 12 24 27 34 43 55 62 81 89 51 59 46 31 36 43 48 55 62 66 70 68 67 81 88 88 89 85 84 86 86 84 82 80 78 78
15 8 4 8 14 35 37 13 7 11 43 18 15 29 54 65 49 59 40 6 33 47 52 61 65 63 63 66 70 66 70 73 83 88 89 90 94 92 92 92 89 86 84 83
6 11 11 6 8 13 7 7 18 7 34 34 35 37 39 23 19 15 20 49 82 81 82 79 79 81 75 66 70 65 62 68 76 75 79 90 97 97 97 92 93 90 88 86
9 6 29 21 16 16 14 18 1 10 26 20 11 8 18 6 25 73 80 83 89 85 83 78 75 67 67 65 64 66 63 68 65 72 79 86 89 94 93 92 95 93 91 89
16 18 10 4 3 21 22 4 16 23 26 27 26 42 53 82 97 82 103 87 86 92 83 67 66 62 62 58 61 63 68 61 65 67 72 76 82 87 88 92 96 96 95 95
4 16 11 20 17 16 20 36 26 35 46 62 65 71 70 78 85 93 79 99 89 80 76 69 59 76 78 67 62 69 65 68 66 68 69 71 77 82 86 92 99 99 100 99
7 12 4 2 16 33 80 71 81 98 101 98 92 98 94 83 80 88 98 88 88 93 96 86 88 97 100 85 70 70 69 71 76 73 72 73 75 78 84 91 99 103 106 104
7 18 11 21 32 64 87 86 101 105 98 91 84 83 86 91 98 94 101 100 97 93 92 92 96 97 95 83 79 70 70 74 75 80 78 78 78 78 83 90 102 106 107 104
23 33 12 26 62 58 73 74 82 80 83 83 85 102 104 102 105 99 103 106 106 105 101 99 96 94 98 88 80 74 69 73 76 79 82 86 83 84 85 88 99 100 101 99
Wind_Direction_500mb
40 72 125 164 81 69 103 75 53 301 357 184 245 264 269 226 224 236 236 236 236 236 238 238 241 238 238 239 237 232 232 238 239 246 254 251 266 283 290 280 269 267 263 269
37 67 245 125 54 87 71 90 347 287 4 187 313 273 258 213 220 226 233 234 236 239 240 237 239 240 240 241 240 235 231 231 237 243 249 252 268 273 279 283 262 263 261 265
88 331 102 118 75 69 51 112 212 198 350 54 327 281 265 274 232 231 237 244 244 240 239 236 237 240 240 239 236 232 226 223 232 236 241 246 252 260 269 280 261 257 261 262
87 340 79 71 74 108 49 315 80 79 44 299 37 292 302 302 285 239 247 246 245 247 245 243 240 240 241 240 234 229 226 225 229 232 240 245 254 264 265 273 258 254 255 257
109 87 131 138 149 120 198 47 78 105 72 24 345 34 274 346 300 272 252 252 255 253 249 246 241 241 243 239 236 231 227 227 228 234 240 242 247 257 260 261 248 251 251 255
79 77 101 145 96 111 100 52 39 49 61 11 249 145 282 241 231 307 286 304 277 259 253 248 244 240 238 236 235 233 230 231 232 235 237 237 250 250 249 248 249 244 248 253
83 221 186 135 92 54 77 71 338 359 5 236 154 211 257 274 263 232 272 295 296 279 255 249 242 236 233 234 235 234 234 234 235 237 239 243 244 246 243 248 250 245 247 250
165 302 178 188 171 171 169 152 162 237 225 267 102 241 244 225 270 290 274 280 293 292 262 254 250 242 236 235 237 239 240 240 240 239 242 245 244 242 244 248 252 247 244 243
151 266 345 146 147 143 181 167 176 53 74 8 229 288 298 325 316 297 277 277 284 292 282 261 252 249 245 241 241 245 246 245 244 246 246 246 246 246 249 251 252 243 242 238
224 288 196 9 130 23 161 161 93 21 259 258 274 272 242 294 324 328 330 318 319 307 292 272 258 252 249 247 247 248 251 251 250 248 248 248 248 246 247 248 246 242 241 237
157 124 301 63 199 180 134 189 150 161 173 227 312 262 218 234 274 272 292 307 319 316 294 287 272 265 260 256 252 252 253 254 251 248 247 248 247 246 247 247 244 243 243 241
206 161 209 230 234 14 325 268 166 176 233 233 256 262 210 243 268 294 294 306 310 309 294 285 277 269 268 265 257 256 255 254 253 253 250 247 247 246 246 246 245 243 243 240
186 281 19 332 357 77 203 194 220 289 138 239 243 264 154 291 316 320 309 325 335 334 315 288 291 301 293 279 268 260 258 259 257 254 251 248 245 243 242 242 244 244 241 235
164 177 183 190 196 137 246 219 218 206 237 250 246 266 277 271 300 298 293 300 302 306 296 289 287 295 291 283 275 268 264 261 259 255 251 250 248 246 243 241 240 241 240 236
89 206 201 253 259 266 245 250 253 230 246 247 262 256 272 277 258 275 292 290 293 299 298 297 296 295 293 288 283 274 269 263 257 255 254 252 249 246 243 240 238 238 237 233
23 279 44 285 298 270 267 271 268 261 261 269 268 277 268 288 288 277 276 289 294 294 294 294 298 301 298 292 284 282 275 269 258 254 254 252 247 243 241 239 238 236 232 228
141 181 113 275 342 322 271 231 243 255 250 251 259 262 277 276 281 281 298 302 296 296 301 305 305 305 305 302 298 293 288 274 265 257 255 252 248 243 240 238 235 233 229 226
147 111 141 260 21 257 139 47 351 272 259 255 261 265 268 276 280 285 296 292 293 304 319 326 328 323 319 316 305 296 288 280 271 260 254 253 249 244 240 238 236 233 229 227
183 129 267 256 243 283 299 306 243 232 277 228 238 264 271 274 290 295 298 227 337 332 327 326 326 323 323 322 316 302 287 283 273 265 258 255 252 245 240 237 235 231 229 227
155 218 208 99 253 257 12 81 343 274 274 285 257 263 279 347 304 306 302 308 308 307 311 311 311 311 311 316 319 312 298 284 276 274 269 256 252 248 243 239 236 232 230 229
120 186 220 227 246 276 250 249 116 156 269 352 332 315 311 280 275 297 304 308 310 307 302 303 300 296 303 307 312 312 304 295 297 283 273 261 255 251 246 242 237 234 230 228
161 168 191 143 190 279 237 213 181 227 278 281 273 281 292 302 304 302 306 307 310 309 308 301 291 294 305 301 301 303 300 308 293 287 276 266 258 251 243 238 237 233 230 228
268 186 186 185 208 231 224 229 227 265 270 274 275 282 290 295 292 298 297 303 302 302 302 299 281 297 304 311 295 291 300 299 292 281 275 269 259 251 244 236 232 230 229 227
279 186 182 81 225 241 258 264 265 266 271 280 286 293 297 294 295 296 299 297 295 294 293 293 293 294 299 303 302 290 294 294 289 281 272 265 257 249 241 237 233 229 227 226
171 141 199 257 273 267 265 263 270 276 281 285 288 288 290 291 291 292 292 293 296 296 294 292 291 291 291 293 295 296 294 295 288 281 271 261 255 247 241 237 235 230 231 229
180 230 207 250 254 247 270 271 278 281 283 284 284 285 287 290 291 295 294 296 296 295 295 293 289 286 287 288 287 290 289 291 288 276 268 260 252 245 238 234 231 232 235 232
Wind_Speed_850mb
11 12 5 11 6 8 11 8 4 5 4 3 12 15 19 27 41 49 56 60 64 67 60 56 58 56 56 55 53 51 48 48 45 42 39 37 32 28 28 19 17 15 12 12
12 10 1 8 7 13 11 9 1 5 4 3 11 19 25 26 39 59 68 73 75 69 65 59 59 59 57 54 54 57 54 53 48 43 39 37 31 32 33 25 19 17 16 15
12 5 3 9 9 11 6 5 2 3 6 1 13 15 10 10 44 52 75 80 75 76 73 69 64 62 56 55 54 54 53 54 52 45 46 43 39 38 40 33 24 21 19 18
9 6 7 11 9 8 4 4 3 5 8 4 8 11 12 8 15 17 48 59 73 75 78 73 68 64 60 56 53 51 53 56 56 52 51 48 44 41 40 39 29 26 23 20
1 2 7 6 7 5 4 7 5 3 4 6 7 1 16 7 13 16 29 52 65 78 83 79 73 68 61 55 53 51 53 57 57 55 53 49 45 45 44 37 33 29 26 23
3 1 3 6 4 5 5 8 13 8 5 4 7 8 12 6 8 11 8 18 30 49 62 70 69 68 64 57 54 54 56 56 56 56 56 53 52 50 46 40 34 32 30 25
1 1 1 4 7 5 11 10 5 9 7 8 3 6 18 20 23 14 27 50 37 32 41 52 63 68 67 64 60 59 58 57 57 58 59 57 53 50 47 45 39 33 31 26
8 6 11 7 10 10 9 11 8 9 5 7 5 11 13 14 14 24 24 28 31 31 34 41 49 56 63 63 62 59 58 57 58 60 59 58 54 55 54 50 41 35 33 29
8 8 4 4 4 13 8 7 8 4 1 1 9 13 18 13 15 18 31 26 28 30 31 37 41 45 54 60 61 58 58 57 58 57 59 60 57 56 54 50 46 41 38 36
4 3 2 4 5 1 10 12 5 3 5 10 9 9 13 13 13 18 18 19 23 25 28 31 33 36 41 51 55 57 57 57 54 57 60 60 58 58 57 54 50 46 42 40
4 5 6 4 7 15 5 6 4 7 9 7 7 10 12 11 8 12 25 27 35 44 30 25 26 28 34 44 52 56 57 59 59 60 61 62 59 57 56 53 51 48 46 43
11 6 6 16 5 5 6 5 11 8 10 8 5 24 8 16 15 18 44 48 46 34 23 21 19 22 31 44 51 56 58 62 62 62 64 64 61 59 57 56 54 52 49 46
9 3 4 16 11 4 10 10 9 4 2 17 15 22 3 5 13 15 21 29 36 35 25 21 26 41 42 49 54 59 60 62 63 63 67 67 65 64 61 59 58 56 55 53
13 9 12 11 7 2 7 11 16 16 16 37 33 49 60 32 21 45 69 67 85 71 53 52 54 56 55 58 62 63 65 66 66 67 68 71 70 66 63 60 61 62 60 59
6 6 2 7 9 3 12 18 17 17 38 30 45 41 49 48 16 36 49 61 66 68 73 81 79 69 68 69 68 68 69 73 72 70 71 75 71 68 67 68 66 65 63 62
6 4 5 8 13 15 34 30 26 30 32 32 37 44 45 83 54 56 64 53 58 68 73 80 81 76 78 82 81 79 79 82 80 76 74 73 75 76 75 73 71 68 66 67
7 4 3 21 5 13 31 19 30 32 41 28 38 50 51 47 56 56 43 43 59 68 62 67 69 71 72 71 74 84 87 91 89 85 81 78 78 81 81 78 75 76 73 72
10 8 5 5 4 25 2 8 6 12 24 27 34 43 55 62 81 89 51 59 46 31 36 43 48 55 62 66 70 68 67 81 88 88 89 85 84 86 86 84 82 80 78 78
15 8 4 8 14 35 37 13 7 11 43 18 15 29 54 65 49 59 40 6 33 47 52 61 65 63 63 66 70 66 70 73 83 88 89 90 94 92 92 92 89 86 84 83
6 11 11 6 8 13 7 7 18 7 34 34 35 37 39 23 19 15 20 49 82 81 82 79 79 81 75 66 70 65 62 68 76 75 79 90 97 97 97 92 93 90 88 86
9 6 29 21 16 16 14 18 1 10 26 20 11 8 18 6 25 73 80 83 89 85 83 78 75 67 67 65 64 66 63 68 65 72 79 86 89 94 93 92 95 93 91 89
16 18 10 4 3 21 22 4 16 23 26 27 26 42 53 82 97 82 103 87 86 92 83 67 66 62 62 58 61 63 68 61 65 67 72 76 82 87 88 92 96 96 95 95
4 16 11 20 17 16 20 36 26 35 46 62 65 71 70 78 85 93 79 99 89 80 76 69 59 76 78 67 62 69 65 68 66 68 69 71 77 82 86 92 99 99 100 99
7 12 4 2 16 33 80 71 81 98 101 98 92 98 94 83 80 88 98 88 88 93 96 86 88 97 100 85 70 70 69 71 76 73 72 73 75 78 84 91 99 103 106 104
7 18 11 21 32 64 87 86 101 105 98 91 84 83 86 91 98 94 101 100 97 93 92 92 96 97 95 83 79 70 70 74 75 80 78 78 78 78 83 90 102 106 107 104
23 33 12 26 62 58 73 74 82 80 83 83 85 102 104 102 105 99 103 106 106 105 101 99 96 94 98 88 80 74 69 73 76 79 82 86 83 84 85 88 99 100 101 99
Wind_Direction_850mb
40 72 125 164 81 69 103 75 53 301 357 184 245 264 269 226 224 236 236 236 236 236 238 238 241 238 238 239 237 232 232 238 239 246 254 251 266 283 290 280 269 267 263 269
37 67 245 125 54 87 71 90 347 287 4 187 313 273 258 213 220 226 233 234 236 239 240 237 239 240 240 241 240 235 231 231 237 243 249 252 268 273 279 283 262 263 261 265
88 331 102 118 75 69 51 112 212 198 350 54 327 281 265 274 232 231 237 244 244 240 239 236 237 240 240 239 236 232 226 223 232 236 241 246 252 260 269 280 261 257 261 262
87 340 79 71 74 108 49 315 80 79 44 299 37 292 302 302 285 239 247 246 245 247 245 243 240 240 241 240 234 229 226 225 229 232 240 245 254 264 265 273 258 254 255 257
109 87 131 138 149 120 198 47 78 105 72 24 345 34 274 346 300 272 252 252 255 253 249 246 241 241 243 239 236 231 227 227 228 234 240 242 247 257 260 261 248 251 251 255
79 77 101 145 96 111 100 52 39 49 61 11 249 145 282 241 231 307 286 304 277 259 253 248 244 240 238 236 235 233 230 231 232 235 237 237 250 250 249 248 249 244 248 253
83 221 186 135 92 54 77 71 338 359 5 236 154 211 257 274 263 232 272 295 296 279 255 249 242 236 233 234 235 234 234 234 235 237 239 243 244 246 243 248 250 245 247 250
165 302 178 188 171 171 169 152 162 237 225 267 102 241 244 225 270 290 274 280 293 292 262 254 250 242 236 235 237 239 240 240 240 239 242 245 244 242 244 248 252 247 244 243
151 266 345 146 147 143 181 167 176 53 74 8 229 288 298 325 316 297 277 277 284 292 282 261 252 249 245 241 241 245 246 245 244 246 246 246 246 246 249 251 252 243 242 238
224 288 196 9 130 23 161 161 93 21 259 258 274 272 242 294 324 328 330 318 319 307 292 272 258 252 249 247 247 248 251 251 250 248 248 248 248 246 247 248 246 242 241 237
157 124 301 63 199 180 134 189 150 161 173 227 312 262 218 234 274 272 292 307 319 316 294 287 272 265 260 256 252 252 253 254 251 248 247 248 247 246 247 247 244 243 243 241
206 161 209 230 234 14 325 268 166 176 233 233 256 262 210 243 268 294 294 306 310 309 294 285 277 269 268 265 257 256 255 254 253 253 250 247 247 246 246 246 245 243 243 240
186 281 19 332 357 77 203 194 220 289 138 239 243 264 154 291 316 320 309 325 335 334 315 288 291 301 293 279 268 260 258 259 257 254 251 248 245 243 242 242 244 244 241 235
164 177 183 190 196 137 246 219 218 206 237 250 246 266 277 271 300 298 293 300 302 306 296 289 287 295 291 283 275 268 264 261 259 255 251 250 248 246 243 241 240 241 240 236
89 206 201 253 259 266 245 250 253 230 246 247 262 256 272 277 258 275 292 290 293 299 298 297 296 295 293 288 283 274 269 263 257 255 254 252 249 246 243 240 238 238 237 233
23 279 44 285 298 270 267 271 268 261 261 269 268 277 268 288 288 277 276 289 294 294 294 294 298 301 298 292 284 282 275 269 258 254 254 252 247 243 241 239 238 236 232 228
141 181 113 275 342 322 271 231 243 255 250 251 259 262 277 276 281 281 298 302 296 296 301 305 305 305 305 302 298 293 288 274 265 257 255 252 248 243 240 238 235 233 229 226
147 111 141 260 21 257 139 47 351 272 259 255 261 265 268 276 280 285 296 292 293 304 319 326 328 323 319 316 305 296 288 280 271 260 254 253 249 244 240 238 236 233 229 227
183 129 267 256 243 283 299 306 243 232 277 228 238 264 271 274 290 295 298 227 337 332 327 326 326 323 323 322 316 302 287 283 273 265 258 255 252 245 240 237 235 231 229 227
155 218 208 99 253 257 12 81 343 274 274 285 257 263 279 347 304 306 302 308 308 307 311 311 311 311 311 316 319 312 298 284 276 274 269 256 252 248 243 239 236 232 230 229
120 186 220 227 246 276 250 249 116 156 269 352 332 315 311 280 275 297 304 308 310 307 302 303 300 296 303 307 312 312 304 295 297 283 273 261 255 251 246 242 237 234 230 228
161 168 191 143 190 279 237 213 181 227 278 281 273 281 292 302 304 302 306 307 310 309 308 301 291 294 305 301 301 303 300 308 293 287 276 266 258 251 243 238 237 233 230 228
268 186 186 185 208 231 224 229 227 265 270 274 275 282 290 295 292 298 297 303 302 302 302 299 281 297 304 311 295 291 300 299 292 281 275 269 259 251 244 236 232 230 229 227
279 186 182 81 225 241 258 264 265 266 271 280 286 293 297 294 295 296 299 297 295 294 293 293 293 294 299 303 302 290 294 294 289 281 272 265 257 249 241 237 233 229 227 226
171 141 199 257 273 267 265 263 270 276 281 285 288 288 290 291 291 292 292 293 296 296 294 292 291 291 291 293 295 296 294 295 288 281 271 261 255 247 241 237 235 230 231 229
180 230 207 250 254 247 270 271 278 281 283 284 284 285 287 290 291 295 294 296 296 295 295 293 289 286 287 288 287 290 289 291 288 276 268 260 252 245 238 234 231 232 235 232